Find Kosmos-2273

NORAD ID: 23004 Int'l Des: 1994-011 Owner: VKS Country: RU operational
LEOCIRCULARPOLAR

Live-Position

3D-Globus wird geladen...

Über Kosmos-2273

Beschreibung wird geladen...

Nächste Überflüge

Passes for default location (London). Set your location on the main map for personalized predictions.

Höhenverlauf

Loading altitude history...

Zweizeiliger Elementsatz

1 23004U 94011F 26107.15454237 .00000032 00000-0 11777-3 0 9992
2 23004 82.5791 354.0391 0004983 339.8101 140.8312 12.62917879483047
Epoch: 17. Apr. 2026 • Age: 13 hours

Aktueller Status

Höhe 1409.7 km
Geschwindigkeit 7.16 km/s
Subsatellitenpunkt 3.52°N, 97.66°W
Startdatum 12. Feb. 1994
Alter 32.1 years
Typ other

Technische Details

Klassifizierung Payload
Masse 225.00 kg
Trockenmasse 225.00 kg
Gesamtmasse 225.00 kg
Länge 1.60 m
Durchmesser 0.80 m
Spannweite 7.00 m
Form Cyl + Ant
Hersteller NPOPMR
Bus-Typ Strela-3
Phasenstatus In Orbit
Besitzer/Staat VKS/RU

Most Searched